QTR612 HAAB-HKJK

Flight info

Callsign QTR612
Flight time N/A
Altitude 40000
Route SHALA2A SHALA UM308 RUDOL/N0472F410 UM308 LOTAS LOTAS4D
Aircraft B772/H-SDE2E3FGHIJ5LORVWXY/LB1D1

Departure

Time N/A
Airport Addis Ababa Bole International Airport (HAAB)

Arrival

Time 2026-04-30 18:52
Airport Jomo Kenyatta International Airport (HKJK)
Time Latitude Longitude Altitude Speed Heading
2026-04-30 17:39 6.58227 38.11991 42038 ft 469 kts 193°
2026-04-30 17:42 6.26703 38.03407 42032 ft 467 kts 193°
2026-04-30 17:43 6.11110 37.99160 42035 ft 466 kts 193°
2026-04-30 17:44 5.92304 37.94042 42052 ft 469 kts 193°
2026-04-30 17:47 5.63927 37.86324 42047 ft 470 kts 193°
2026-04-30 17:48 5.41854 37.80327 42042 ft 468 kts 193°
2026-04-30 17:50 5.16754 37.73513 42036 ft 468 kts 194°
2026-04-30 17:52 4.97851 37.68384 42032 ft 471 kts 194°
2026-04-30 17:54 4.69374 37.60664 42021 ft 473 kts 194°
2026-04-30 17:56 4.44980 37.54056 42012 ft 474 kts 193°
2026-04-30 17:58 4.25849 37.48877 41994 ft 475 kts 193°
2026-04-30 18:00 4.00401 37.41991 41970 ft 474 kts 193°
2026-04-30 18:01 3.84590 37.37355 41962 ft 473 kts 195°
2026-04-30 18:02 3.65646 37.31744 41950 ft 473 kts 194°
2026-04-30 18:04 3.46731 37.26161 41941 ft 473 kts 194°
2026-04-30 18:06 3.21500 37.18716 41944 ft 472 kts 194°
2026-04-30 18:08 2.99451 37.12213 41963 ft 471 kts 194°
2026-04-30 18:10 2.74365 37.04818 41969 ft 470 kts 194°
2026-04-30 18:11 2.52456 36.98363 41978 ft 470 kts 194°
2026-04-30 18:13 2.36767 36.93741 41980 ft 469 kts 195°
2026-04-30 18:14 2.21167 36.89147 41985 ft 468 kts 194°
2026-04-30 18:15 2.02416 36.83626 41990 ft 469 kts 195°
2026-04-30 18:16 1.89888 36.79938 42002 ft 469 kts 195°
2026-04-30 18:17 1.83612 36.78091 41996 ft 469 kts 195°
2026-04-30 18:18 1.74251 36.75335 42000 ft 469 kts 195°
2026-04-30 18:18 1.67996 36.73495 42000 ft 468 kts 195°
2026-04-30 18:19 1.61746 36.71655 41997 ft 468 kts 195°
2026-04-30 18:19 1.55506 36.69819 42006 ft 467 kts 195°
2026-04-30 18:20 1.49273 36.67985 42003 ft 467 kts 195°
2026-04-30 18:20 1.43035 36.66150 42029 ft 467 kts 195°
2026-04-30 18:21 1.36839 36.64327 42014 ft 467 kts 195°
2026-04-30 18:21 1.30592 36.62489 42032 ft 468 kts 195°
2026-04-30 18:22 1.24350 36.60653 42029 ft 468 kts 195°
2026-04-30 18:22 1.15006 36.57903 42044 ft 469 kts 195°
2026-04-30 18:23 1.08745 36.56061 42056 ft 469 kts 195°
2026-04-30 18:23 1.02468 36.54293 42045 ft 468 kts 191°
2026-04-30 18:24 0.96013 36.53532 42057 ft 467 kts 180°
2026-04-30 18:24 0.92763 36.53611 42060 ft 466 kts 176°
2026-04-30 18:25 0.86284 36.53929 42053 ft 467 kts 176°
2026-04-30 18:25 0.76538 36.54403 42071 ft 468 kts 176°
2026-04-30 18:26 0.66815 36.54831 41788 ft 473 kts 176°
2026-04-30 18:26 0.63513 36.54974 41132 ft 474 kts 177°
2026-04-30 18:27 0.56936 36.55258 39923 ft 471 kts 177°
2026-04-30 18:27 0.53675 36.55399 39488 ft 467 kts 177°
2026-04-30 18:28 0.47229 36.55679 38568 ft 460 kts 178°
2026-04-30 18:28 0.44043 36.55817 38081 ft 456 kts 178°
2026-04-30 18:28 0.37802 36.56088 37214 ft 447 kts 178°
2026-04-30 18:29 0.34707 36.56222 36804 ft 443 kts 178°
2026-04-30 18:29 0.25582 36.56619 35569 ft 433 kts 178°
2026-04-30 18:30 0.20609 36.56834 34881 ft 428 kts 178°
2026-04-30 18:30 0.13680 36.57135 33838 ft 424 kts 178°
2026-04-30 18:31 0.10744 36.57263 33413 ft 421 kts 178°
2026-04-30 18:31 0.04929 36.57515 32567 ft 415 kts 178°
2026-04-30 18:32 -0.00754 36.57761 31766 ft 409 kts 177°
2026-04-30 18:32 -0.03594 36.57885 31346 ft 407 kts 177°
2026-04-30 18:32 -0.09227 36.58129 30511 ft 403 kts 177°
2026-04-30 18:33 -0.12031 36.58251 30068 ft 401 kts 177°
2026-04-30 18:33 -0.17592 36.58493 29144 ft 397 kts 177°
2026-04-30 18:33 -0.20348 36.58612 28709 ft 394 kts 177°
2026-04-30 18:34 -0.23082 36.58731 28286 ft 392 kts 177°
2026-04-30 18:34 -0.28460 36.58965 27487 ft 387 kts 177°
2026-04-30 18:34 -0.31140 36.59081 27087 ft 384 kts 178°
2026-04-30 18:35 -0.33804 36.59197 26694 ft 382 kts 178°
2026-04-30 18:35 -0.36452 36.59312 26300 ft 380 kts 178°
2026-04-30 18:35 -0.39094 36.59427 25919 ft 379 kts 178°
2026-04-30 18:36 -0.44339 36.59655 25127 ft 376 kts 178°
2026-04-30 18:36 -0.46948 36.59768 24739 ft 374 kts 178°
2026-04-30 18:36 -0.52144 36.59993 23983 ft 372 kts 178°
2026-04-30 18:37 -0.54728 36.60105 23559 ft 371 kts 178°
2026-04-30 18:37 -0.56426 36.60179 23280 ft 369 kts 178°
2026-04-30 18:37 -0.59853 36.60328 22748 ft 366 kts 178°
2026-04-30 18:37 -0.61533 36.60401 22490 ft 364 kts 178°
2026-04-30 18:38 -0.64029 36.60509 22111 ft 361 kts 178°
2026-04-30 18:38 -0.67378 36.60655 21602 ft 358 kts 178°
2026-04-30 18:38 -0.69862 36.60763 21223 ft 356 kts 178°
2026-04-30 18:38 -0.72327 36.60870 20845 ft 354 kts 178°
2026-04-30 18:39 -0.73954 36.60940 20600 ft 352 kts 178°
2026-04-30 18:39 -0.76399 36.61046 20220 ft 351 kts 178°
2026-04-30 18:39 -0.79626 36.61187 19708 ft 349 kts 178°
2026-04-30 18:39 -0.82050 36.61292 19319 ft 348 kts 178°
2026-04-30 18:40 -0.84471 36.61397 18929 ft 347 kts 178°
2026-04-30 18:40 -0.86071 36.61466 18669 ft 346 kts 178°
2026-04-30 18:40 -0.88476 36.61571 18241 ft 345 kts 178°
2026-04-30 18:40 -0.90872 36.61675 17838 ft 343 kts 178°
2026-04-30 18:41 -0.93251 36.61778 17442 ft 341 kts 178°
2026-04-30 18:41 -0.96382 36.61914 16939 ft 338 kts 178°
2026-04-30 18:41 -0.98719 36.62015 16556 ft 335 kts 178°
2026-04-30 18:41 -1.01039 36.62116 16168 ft 333 kts 177°
2026-04-30 18:42 -1.03348 36.62216 15809 ft 331 kts 177°
2026-04-30 18:42 -1.07921 36.62415 15084 ft 326 kts 177°
2026-04-30 18:42 -1.10178 36.62513 14721 ft 324 kts 177°
2026-04-30 18:45 -1.31883 36.63456 11157 ft 301 kts 176°
2026-04-30 18:45 -1.33270 36.63516 10939 ft 300 kts 176°
2026-04-30 18:45 -1.35344 36.63606 10596 ft 298 kts 176°
2026-04-30 18:46 -1.37374 36.63802 10377 ft 285 kts 163°
2026-04-30 18:46 -1.39537 36.65155 10152 ft 279 kts 131°
2026-04-30 18:46 -1.40314 36.66211 9975 ft 279 kts 118°
2026-04-30 18:46 -1.41002 36.67985 9661 ft 276 kts 107°
2026-04-30 18:47 -1.41541 36.69848 9269 ft 280 kts 106°
2026-04-30 18:47 -1.42073 36.71708 8976 ft 277 kts 106°
2026-04-30 18:47 -1.42612 36.73547 8720 ft 274 kts 106°
2026-04-30 18:47 -1.43148 36.75981 8395 ft 263 kts 88°
2026-04-30 18:48 -1.42921 36.77159 8262 ft 260 kts 69°
2026-04-30 18:48 -1.42099 36.78705 8017 ft 242 kts 60°
2026-04-30 18:48 -1.41208 36.80037 7846 ft 219 kts 56°
2026-04-30 18:48 -1.40077 36.81588 7608 ft 201 kts 56°
2026-04-30 18:49 -1.39274 36.82686 7460 ft 188 kts 56°
2026-04-30 18:49 -1.38780 36.83364 7323 ft 176 kts 56°
2026-04-30 18:49 -1.38315 36.84002 7225 ft 164 kts 57°
2026-04-30 18:49 -1.37466 36.85170 6951 ft 148 kts 57°
2026-04-30 18:50 -1.36881 36.85975 6786 ft 141 kts 57°
2026-04-30 18:50 -1.36303 36.86770 6641 ft 142 kts 58°
2026-04-30 18:50 -1.35725 36.87566 6403 ft 142 kts 57°
2026-04-30 18:50 -1.35154 36.88351 6193 ft 138 kts 56°
2026-04-30 18:51 -1.34597 36.89115 6005 ft 134 kts 54°
2026-04-30 18:51 -1.34056 36.89860 5830 ft 132 kts 53°
2026-04-30 18:51 -1.33506 36.90615 5660 ft 136 kts 54°
2026-04-30 18:51 -1.32941 36.91393 5493 ft 139 kts 53°
2026-04-30 18:52 -1.32375 36.92161 5341 ft 134 kts 53°
2026-04-30 18:52 -1.31889 36.92827 5312 ft 100 kts 53°
2026-04-30 18:52 -1.31604 36.93215 5303 ft 25 kts 54°
2026-04-30 18:52 -1.31580 36.93335 5305 ft 18 kts 124°
2026-04-30 18:53 -1.31638 36.93381 5306 ft 13 kts 144°
2026-04-30 18:53 -1.31670 36.93404 5305 ft 0 kts 144°
2026-04-30 18:53 -1.31690 36.93418 5309 ft 8 kts 144°
2026-04-30 18:53 -1.31735 36.93450 5308 ft 8 kts 144°
2026-04-30 18:54 -1.31781 36.93482 5313 ft 8 kts 151°
2026-04-30 18:54 -1.31829 36.93466 5306 ft 8 kts 232°
2026-04-30 18:54 -1.31862 36.93421 5308 ft 8 kts 234°
2026-04-30 18:54 -1.31895 36.93376 5309 ft 8 kts 233°
2026-04-30 18:55 -1.31928 36.93330 5310 ft 8 kts 233°
2026-04-30 18:55 -1.31995 36.93240 5313 ft 8 kts 234°
2026-04-30 18:55 -1.32028 36.93194 5311 ft 8 kts 234°
2026-04-30 18:56 -1.32094 36.93103 5317 ft 8 kts 233°
2026-04-30 18:56 -1.32128 36.93057 5318 ft 8 kts 234°
2026-04-30 18:56 -1.32161 36.93011 5317 ft 8 kts 234°
2026-04-30 18:57 -1.32228 36.92920 5318 ft 8 kts 233°
2026-04-30 18:57 -1.32262 36.92874 5316 ft 10 kts 233°
2026-04-30 18:57 -1.32310 36.92809 5322 ft 12 kts 234°
2026-04-30 18:58 -1.32408 36.92674 5334 ft 12 kts 234°
2026-04-30 18:58 -1.32456 36.92608 5333 ft 12 kts 233°
2026-04-30 18:58 -1.32505 36.92542 5320 ft 12 kts 233°
2026-04-30 18:59 -1.32601 36.92411 5334 ft 12 kts 233°
2026-04-30 19:00 -1.32806 36.92353 5333 ft 12 kts 234°
2026-04-30 19:00 -1.32859 36.92290 5335 ft 12 kts 221°
2026-04-30 19:00 -1.33007 36.92220 5329 ft 12 kts 189°
2026-04-30 19:01 -1.33129 36.92274 5333 ft 12 kts 62°
2026-04-30 19:01 -1.33114 36.92305 5334 ft 1 kts 72°
2026-04-30 19:02 -1.33112 36.92310 5334 ft 0 kts 73°